Time,TemperatureF,DewpointF,PressureIn,WindDirection,WindDirectionDegrees,WindSpeedMPH,WindSpeedGustMPH,Humidity,HourlyPrecipIn,Conditions,Clouds,dailyrainin,SolarRadiationWatts/m^2,SoftwareType,DateUTC
2013-07-01 00:04:00,62.4,59.8,29.94,North,360,1.0,7.0,91,0.00,,,0.00,0.0,WeatherDisplay:10.37,2013-07-01 04:04:00,
2013-07-01 00:14:00,61.8,59.5,29.93,North,360,1.0,4.0,92,0.00,CLR,CLR,0.00,0.0,WeatherDisplay:10.37,2013-07-01 04:14:00,
2013-07-01 00:19:00,61.5,59.2,29.94,North,360,0.0,4.0,92,0.00,CLR,CLR,0.00,0.0,WeatherDisplay:10.37,2013-07-01 04:19:00,
2013-07-01 00:24:00,61.3,59.0,29.94,North,360,0.0,0.0,92,0.03,RA,RA,0.03,0.0,WeatherDisplay:10.37,2013-07-01 04:24:00,
2013-07-01 00:29:00,61.2,59.2,29.94,North,360,0.0,1.0,93,0.01,RA,RA,0.04,0.0,WeatherDisplay:10.37,2013-07-01 04:29:00,
2013-07-01 00:34:00,61.0,59.0,29.94,North,360,0.0,4.0,93,0.01,RA,RA,0.05,0.0,WeatherDisplay:10.37,2013-07-01 04:34:00,
2013-07-01 00:39:00,60.9,58.9,29.94,North,360,0.0,0.0,93,0.05,RA,RA,0.10,0.0,WeatherDisplay:10.37,2013-07-01 04:39:00,
2013-07-01 00:44:00,60.9,58.9,29.94,North,360,1.0,3.0,93,0.04,RA,RA,0.14,0.0,WeatherDisplay:10.37,2013-07-01 04:44:00,
2013-07-01 00:49:00,60.8,58.8,29.94,North,360,0.0,2.0,93,0.01,RA,RA,0.15,0.0,WeatherDisplay:10.37,2013-07-01 04:49:00,
2013-07-01 00:59:00,60.7,59.0,29.94,North,360,0.0,0.0,94,0.00,RA,RA,0.15,0.0,WeatherDisplay:10.37,2013-07-01 04:59:00,
2013-07-01 01:04:00,60.7,59.0,29.94,North,360,2.0,4.0,94,0.00,RA,RA,0.15,0.0,WeatherDisplay:10.37,2013-07-01 05:04:00,
2013-07-01 01:14:00,60.7,59.3,29.93,North,360,1.0,4.0,95,0.00,RA,RA,0.15,0.0,WeatherDisplay:10.37,2013-07-01 05:14:00,
2013-07-01 01:19:00,60.8,59.0,29.93,North,360,3.0,7.0,94,0.00,RA,RA,0.15,0.0,WeatherDisplay:10.37,2013-07-01 05:19:00,
2013-07-01 01:29:00,60.8,59.4,29.92,North,360,6.0,7.0,95,0.01,RA,RA,0.16,0.0,WeatherDisplay:10.37,2013-07-01 05:29:00,
2013-07-01 01:34:00,60.8,59.4,29.92,North,360,7.0,10.0,95,0.00,RA,RA,0.16,0.0,WeatherDisplay:10.37,2013-07-01 05:34:00,
2013-07-01 01:39:00,60.9,59.5,29.93,North,360,0.0,5.0,95,0.00,RA,RA,0.16,0.0,WeatherDisplay:10.37,2013-07-01 05:39:00,
2013-07-01 01:49:00,61.0,59.6,29.92,North,360,0.0,3.0,95,0.00,RA,RA,0.17,0.0,WeatherDisplay:10.37,2013-07-01 05:49:00,
2013-07-01 01:54:00,61.1,59.6,29.92,North,360,0.0,1.0,95,0.00,RA,RA,0.17,0.0,WeatherDisplay:10.37,2013-07-01 05:54:00,
2013-07-01 01:59:00,61.1,59.7,29.92,North,360,0.0,2.0,95,0.00,RA,RA,0.17,0.0,WeatherDisplay:10.37,2013-07-01 05:59:00,
2013-07-01 02:09:00,61.2,59.8,29.92,North,360,6.0,9.0,95,0.00,RA,RA,0.17,0.0,WeatherDisplay:10.37,2013-07-01 06:09:00,
2013-07-01 02:19:00,61.4,60.0,29.92,North,360,7.0,10.0,95,0.00,RA,RA,0.17,0.0,WeatherDisplay:10.37,2013-07-01 06:19:00,
2013-07-01 02:29:00,61.6,60.5,29.91,North,360,1.0,7.0,96,0.01,RA,RA,0.20,0.0,WeatherDisplay:10.37,2013-07-01 06:29:00,
2013-07-01 02:39:00,61.9,60.7,29.92,North,360,8.0,21.0,96,0.00,RA,RA,0.22,0.0,WeatherDisplay:10.37,2013-07-01 06:39:00,
2013-07-01 02:44:00,61.7,60.2,29.91,North,360,15.0,27.0,95,0.01,RA,RA,0.23,0.0,WeatherDisplay:10.37,2013-07-01 06:44:00,
2013-07-01 02:49:00,60.9,58.8,29.91,North,360,12.0,24.0,93,0.01,RA,RA,0.24,0.0,WeatherDisplay:10.37,2013-07-01 06:49:00,
2013-07-01 02:54:00,60.3,58.0,29.92,North,360,2.0,16.0,92,0.01,RA,RA,0.25,0.0,WeatherDisplay:10.37,2013-07-01 06:54:00,
2013-07-01 02:59:00,60.3,58.3,29.93,North,360,2.0,6.0,93,0.01,RA,RA,0.26,0.0,WeatherDisplay:10.37,2013-07-01 06:59:00,
2013-07-01 03:04:00,60.2,58.2,29.92,North,360,1.0,5.0,93,0.01,RA,RA,0.27,0.0,WeatherDisplay:10.37,2013-07-01 07:04:00,
2013-07-01 03:09:00,60.1,58.1,29.92,North,360,3.0,4.0,93,0.00,RA,RA,0.27,0.0,WeatherDisplay:10.37,2013-07-01 07:09:00,
2013-07-01 03:14:00,60.1,58.4,29.92,North,360,0.0,4.0,94,0.00,RA,RA,0.27,0.0,WeatherDisplay:10.37,2013-07-01 07:14:00,
2013-07-01 03:19:00,60.0,58.0,29.92,North,360,0.0,0.0,93,0.00,RA,RA,0.27,0.0,WeatherDisplay:10.37,2013-07-01 07:19:00,
2013-07-01 03:24:00,60.0,58.0,29.92,North,360,0.0,3.0,93,0.00,RA,RA,0.27,0.0,WeatherDisplay:10.37,2013-07-01 07:24:00,
2013-07-01 03:29:00,60.0,58.3,29.92,North,360,3.0,5.0,94,0.00,RA,RA,0.27,0.0,WeatherDisplay:10.37,2013-07-01 07:29:00,
2013-07-01 03:39:00,59.9,58.2,29.92,North,360,0.0,0.0,94,0.00,RA,RA,0.28,0.0,WeatherDisplay:10.37,2013-07-01 07:39:00,
2013-07-01 03:49:00,59.8,58.0,29.92,North,360,5.0,6.0,94,0.00,RA,RA,0.28,0.0,WeatherDisplay:10.37,2013-07-01 07:49:00,
2013-07-01 03:59:00,59.7,58.2,29.92,North,360,0.0,4.0,95,0.00,RA,RA,0.28,0.0,WeatherDisplay:10.37,2013-07-01 07:59:00,
2013-07-01 04:04:00,59.8,58.4,29.92,North,360,0.0,1.0,95,0.00,RA,RA,0.28,0.0,WeatherDisplay:10.37,2013-07-01 08:04:00,
2013-07-01 04:14:00,59.9,58.5,29.93,North,360,3.0,5.0,95,0.01,RA,RA,0.30,0.0,WeatherDisplay:10.37,2013-07-01 08:14:00,
2013-07-01 04:19:00,59.8,58.4,29.93,North,360,1.0,7.0,95,0.00,RA,RA,0.30,0.0,WeatherDisplay:10.37,2013-07-01 08:19:00,
2013-07-01 04:24:00,59.7,58.3,29.92,North,360,5.0,5.0,95,0.00,RA,RA,0.30,0.0,WeatherDisplay:10.37,2013-07-01 08:24:00,
2013-07-01 04:34:00,59.7,58.2,29.92,North,360,1.0,5.0,95,0.00,RA,RA,0.31,0.0,WeatherDisplay:10.37,2013-07-01 08:34:00,
2013-07-01 04:39:00,59.6,58.2,29.92,North,360,0.0,0.0,95,0.00,RA,RA,0.31,0.0,WeatherDisplay:10.37,2013-07-01 08:39:00,
2013-07-01 04:44:00,59.6,58.1,29.92,North,360,0.0,0.0,95,0.00,RA,RA,0.31,0.0,WeatherDisplay:10.37,2013-07-01 08:44:00,
2013-07-01 04:49:00,59.6,58.2,29.92,North,360,0.0,0.0,95,0.01,RA,RA,0.32,0.0,WeatherDisplay:10.37,2013-07-01 08:49:00,
2013-07-01 04:54:00,59.6,58.2,29.93,North,360,0.0,0.0,95,0.01,RA,RA,0.33,0.0,WeatherDisplay:10.37,2013-07-01 08:54:00,
2013-07-01 04:59:00,59.7,58.6,29.93,North,360,0.0,4.0,96,0.01,RA,RA,0.34,0.0,WeatherDisplay:10.37,2013-07-01 08:59:00,
2013-07-01 05:04:00,59.8,58.7,29.94,North,360,0.0,3.0,96,0.04,RA,RA,0.38,0.0,WeatherDisplay:10.37,2013-07-01 09:04:00,
2013-07-01 05:09:00,59.7,58.6,29.94,North,360,0.0,1.0,96,0.13,RA,RA,0.51,0.0,WeatherDisplay:10.37,2013-07-01 09:09:00,
2013-07-01 05:14:00,59.7,58.5,29.94,North,360,2.0,4.0,96,0.15,RA,RA,0.66,0.0,WeatherDisplay:10.37,2013-07-01 09:14:00,
2013-07-01 05:19:00,59.6,58.2,29.94,North,360,0.0,3.0,95,0.07,RA,RA,0.73,0.0,WeatherDisplay:10.37,2013-07-01 09:19:00,
2013-07-01 05:29:00,59.5,58.4,29.94,North,360,0.0,2.0,96,0.01,RA,RA,0.75,0.0,WeatherDisplay:10.37,2013-07-01 09:29:00,
2013-07-01 05:34:00,59.5,58.4,29.94,North,360,3.0,5.0,96,0.00,RA,RA,0.75,0.0,WeatherDisplay:10.37,2013-07-01 09:34:00,
2013-07-01 05:44:00,59.6,58.4,29.94,North,360,2.0,7.0,96,0.01,RA,RA,0.76,0.0,WeatherDisplay:10.37,2013-07-01 09:44:00,
2013-07-01 05:49:00,59.6,58.4,29.95,North,360,0.0,5.0,96,0.00,RA,RA,0.76,0.0,WeatherDisplay:10.37,2013-07-01 09:49:00,
2013-07-01 05:59:00,59.6,58.4,29.95,North,360,0.0,1.0,96,0.00,RA,RA,0.76,0.0,WeatherDisplay:10.37,2013-07-01 09:59:00,
2013-07-01 06:04:00,59.5,58.4,29.95,North,360,0.0,0.0,96,0.00,RA,RA,0.76,0.0,WeatherDisplay:10.37,2013-07-01 10:04:00,
2013-07-01 06:09:00,59.5,58.4,29.95,North,360,0.0,0.0,96,0.00,RA,RA,0.76,0.0,WeatherDisplay:10.37,2013-07-01 10:09:00,
2013-07-01 06:14:00,59.6,58.5,29.95,North,360,1.0,2.0,96,0.00,RA,RA,0.76,0.0,WeatherDisplay:10.37,2013-07-01 10:14:00,
2013-07-01 06:19:00,59.6,58.5,29.95,North,360,0.0,0.0,96,0.00,RA,RA,0.76,0.0,WeatherDisplay:10.37,2013-07-01 10:19:00,
2013-07-01 06:29:00,59.7,58.6,29.95,North,360,0.0,2.0,96,0.00,RA,RA,0.76,0.0,WeatherDisplay:10.37,2013-07-01 10:29:00,
2013-07-01 06:34:00,59.8,58.7,29.96,North,360,0.0,0.0,96,0.00,RA,RA,0.76,16.0,WeatherDisplay:10.37,2013-07-01 10:34:00,
2013-07-01 06:39:00,59.8,58.7,29.96,North,360,0.0,0.0,96,0.00,RA,RA,0.76,7.0,WeatherDisplay:10.37,2013-07-01 10:39:00,
2013-07-01 06:44:00,59.9,58.8,29.96,North,360,0.0,0.0,96,0.00,RA,RA,0.76,5.0,WeatherDisplay:10.37,2013-07-01 10:44:00,
2013-07-01 06:49:00,59.9,58.8,29.96,North,360,0.0,0.0,96,0.01,RA,RA,0.77,18.0,WeatherDisplay:10.37,2013-07-01 10:49:00,
2013-07-01 06:59:00,59.9,58.8,29.96,North,360,0.0,0.0,96,0.00,RA,RA,0.77,90.0,WeatherDisplay:10.37,2013-07-01 10:59:00,
2013-07-01 07:04:00,59.9,58.8,29.96,North,360,0.0,0.0,96,0.04,RA,RA,0.81,95.0,WeatherDisplay:10.37,2013-07-01 11:04:00,
2013-07-01 07:09:00,59.9,58.8,29.96,North,360,0.0,0.0,96,0.00,RA,RA,0.81,105.0,WeatherDisplay:10.37,2013-07-01 11:09:00,
2013-07-01 07:14:00,60.1,58.9,29.97,North,360,0.0,0.0,96,0.01,RA,RA,0.82,60.0,WeatherDisplay:10.37,2013-07-01 11:14:00,
2013-07-01 07:19:00,60.0,58.9,29.96,North,360,0.0,1.0,96,0.01,RA,RA,0.83,62.0,WeatherDisplay:10.37,2013-07-01 11:19:00,
2013-07-01 07:24:00,60.1,59.0,29.97,North,360,0.0,0.0,96,0.02,RA,RA,0.85,44.0,WeatherDisplay:10.37,2013-07-01 11:24:00,
2013-07-01 07:34:00,60.2,59.1,29.97,North,360,0.0,3.0,96,0.01,RA,RA,0.87,58.0,WeatherDisplay:10.37,2013-07-01 11:34:00,
2013-07-01 07:39:00,60.4,59.3,29.97,North,360,0.0,0.0,96,0.00,RA,RA,0.87,97.0,WeatherDisplay:10.37,2013-07-01 11:39:00,
2013-07-01 07:49:00,60.6,59.5,29.97,North,360,0.0,0.0,96,0.00,RA,RA,0.87,149.0,WeatherDisplay:10.37,2013-07-01 11:49:00,
2013-07-01 07:54:00,60.6,59.5,29.97,North,360,0.0,0.0,96,0.00,RA,RA,0.87,97.0,WeatherDisplay:10.37,2013-07-01 11:54:00,
2013-07-01 07:59:00,60.8,59.7,29.97,North,360,0.0,0.0,96,0.00,RA,RA,0.87,102.0,WeatherDisplay:10.37,2013-07-01 11:59:00,
2013-07-01 08:04:00,61.0,59.9,29.97,North,360,0.0,0.0,96,0.00,RA,RA,0.87,346.0,WeatherDisplay:10.37,2013-07-01 12:04:00,
2013-07-01 08:09:00,61.4,60.2,29.97,North,360,0.0,0.0,96,0.00,RA,RA,0.87,392.0,WeatherDisplay:10.37,2013-07-01 12:09:00,
2013-07-01 08:14:00,61.9,60.7,29.97,North,360,0.0,0.0,96,0.00,RA,RA,0.87,320.0,WeatherDisplay:10.37,2013-07-01 12:14:00,
2013-07-01 08:24:00,62.5,61.3,29.97,North,360,0.0,0.0,96,0.00,RA,RA,0.87,121.0,WeatherDisplay:10.37,2013-07-01 12:24:00,
2013-07-01 08:29:00,62.5,61.0,29.97,North,360,0.0,0.0,95,0.00,RA,RA,0.87,146.0,WeatherDisplay:10.37,2013-07-01 12:29:00,
2013-07-01 08:34:00,62.6,61.1,29.97,North,360,0.0,0.0,95,0.00,RA,RA,0.87,279.0,WeatherDisplay:10.37,2013-07-01 12:34:00,
2013-07-01 08:39:00,62.8,61.3,29.98,North,360,0.0,0.0,95,0.00,RA,RA,0.87,206.0,WeatherDisplay:10.37,2013-07-01 12:39:00,
2013-07-01 08:44:00,63.0,61.5,29.98,North,360,0.0,1.0,95,0.00,RA,RA,0.87,341.0,WeatherDisplay:10.37,2013-07-01 12:44:00,
2013-07-01 08:54:00,63.2,61.7,29.98,North,360,0.0,3.0,95,0.00,RA,RA,0.87,417.0,WeatherDisplay:10.37,2013-07-01 12:54:00,
2013-07-01 08:59:00,63.3,61.8,29.98,North,360,0.0,3.0,95,0.00,RA,RA,0.87,490.0,WeatherDisplay:10.37,2013-07-01 12:59:00,
2013-07-01 09:04:00,63.6,62.5,29.98,North,360,0.0,0.0,96,0.00,RA,RA,0.87,499.0,WeatherDisplay:10.37,2013-07-01 13:04:00,
2013-07-01 09:14:00,64.7,63.6,29.98,North,360,0.0,3.0,96,0.00,RA,RA,0.87,587.0,WeatherDisplay:10.37,2013-07-01 13:14:00,
2013-07-01 09:24:00,65.2,63.4,29.98,North,360,0.0,0.0,94,0.00,RA,RA,0.87,689.0,WeatherDisplay:10.37,2013-07-01 13:24:00,
2013-07-01 09:29:00,65.4,63.4,29.98,North,360,0.0,0.0,93,0.00,RA,RA,0.87,703.0,WeatherDisplay:10.37,2013-07-01 13:29:00,
2013-07-01 09:34:00,65.7,63.3,29.98,North,360,0.0,1.0,92,0.00,RA,RA,0.87,758.0,WeatherDisplay:10.37,2013-07-01 13:34:00,
2013-07-01 09:44:00,66.3,63.6,29.98,North,360,0.0,3.0,91,0.00,RA,RA,0.87,172.0,WeatherDisplay:10.37,2013-07-01 13:44:00,
2013-07-01 09:49:00,66.3,63.3,29.98,North,360,1.0,5.0,90,0.00,RA,RA,0.87,172.0,WeatherDisplay:10.37,2013-07-01 13:49:00,
2013-07-01 09:54:00,66.2,63.2,29.98,North,360,3.0,7.0,90,0.00,RA,RA,0.87,652.0,WeatherDisplay:10.37,2013-07-01 13:54:00,
2013-07-01 09:59:00,66.3,63.6,29.98,North,360,0.0,9.0,91,0.00,RA,RA,0.87,244.0,WeatherDisplay:10.37,2013-07-01 13:59:00,
2013-07-01 10:04:00,66.5,63.1,29.99,North,360,3.0,9.0,89,0.00,RA,RA,0.87,715.0,WeatherDisplay:10.37,2013-07-01 14:04:00,
2013-07-01 10:09:00,66.8,63.8,29.99,North,360,0.0,2.0,90,0.00,RA,RA,0.87,758.0,WeatherDisplay:10.37,2013-07-01 14:09:00,
2013-07-01 10:14:00,67.3,63.3,29.99,North,360,0.0,5.0,87,0.00,RA,RA,0.87,749.0,WeatherDisplay:10.37,2013-07-01 14:14:00,
2013-07-01 10:19:00,67.6,63.6,29.99,North,360,1.0,5.0,87,0.00,RA,RA,0.87,190.0,WeatherDisplay:10.37,2013-07-01 14:19:00,
2013-07-01 10:24:00,67.4,62.7,29.99,North,360,0.0,5.0,85,0.00,RA,RA,0.87,251.0,WeatherDisplay:10.37,2013-07-01 14:24:00,
2013-07-01 10:34:00,68.0,64.3,29.99,North,360,0.0,1.0,88,0.00,RA,RA,0.87,353.0,WeatherDisplay:10.37,2013-07-01 14:34:00,
2013-07-01 10:39:00,68.2,64.5,29.99,North,360,2.0,5.0,88,0.00,RA,RA,0.87,251.0,WeatherDisplay:10.37,2013-07-01 14:39:00,
2013-07-01 10:44:00,68.4,64.7,29.99,North,360,3.0,5.0,88,0.00,RA,RA,0.87,867.0,WeatherDisplay:10.37,2013-07-01 14:44:00,
2013-07-01 10:49:00,68.9,66.2,29.99,North,360,2.0,7.0,91,0.00,RA,RA,0.87,691.0,WeatherDisplay:10.37,2013-07-01 14:49:00,
2013-07-01 10:59:00,69.2,65.5,29.99,North,360,5.0,10.0,88,0.00,RA,RA,0.87,381.0,WeatherDisplay:10.37,2013-07-01 14:59:00,
2013-07-01 11:04:00,69.0,64.6,29.99,North,360,5.0,9.0,86,0.00,RA,RA,0.87,378.0,WeatherDisplay:10.37,2013-07-01 15:04:00,
2013-07-01 11:14:00,69.6,65.2,30.00,North,360,5.0,14.0,86,0.00,RA,RA,0.87,1007.0,WeatherDisplay:10.37,2013-07-01 15:14:00,
2013-07-01 11:19:00,69.9,65.2,30.00,North,360,3.0,10.0,85,0.00,RA,RA,0.87,1062.0,WeatherDisplay:10.37,2013-07-01 15:19:00,
2013-07-01 11:24:00,69.9,65.2,30.00,North,360,3.0,10.0,85,0.00,RA,RA,0.87,981.0,WeatherDisplay:10.37,2013-07-01 15:24:00,
2013-07-01 11:29:00,70.3,66.6,30.00,North,360,2.0,10.0,88,0.00,RA,RA,0.87,434.0,WeatherDisplay:10.37,2013-07-01 15:29:00,
2013-07-01 11:34:00,70.4,65.7,30.00,North,360,3.0,7.0,85,0.00,RA,RA,0.87,995.0,WeatherDisplay:10.37,2013-07-01 15:34:00,
2013-07-01 11:44:00,71.1,65.7,29.99,North,360,7.0,13.0,83,0.00,RA,RA,0.87,954.0,WeatherDisplay:10.37,2013-07-01 15:44:00,
2013-07-01 11:49:00,71.3,64.8,29.99,North,360,7.0,12.0,80,0.00,RA,RA,0.87,974.0,WeatherDisplay:10.37,2013-07-01 15:49:00,
2013-07-01 11:54:00,71.5,66.4,29.99,North,360,3.0,7.0,84,0.00,RA,RA,0.87,958.0,WeatherDisplay:10.37,2013-07-01 15:54:00,
2013-07-01 11:59:00,71.9,66.8,29.99,North,360,1.0,9.0,84,0.00,RA,RA,0.87,956.0,WeatherDisplay:10.37,2013-07-01 15:59:00,
2013-07-01 12:09:00,71.8,64.6,29.99,North,360,7.0,13.0,78,0.00,RA,RA,0.87,1067.0,WeatherDisplay:10.37,2013-07-01 16:09:00,
2013-07-01 12:14:00,71.8,66.0,29.99,North,360,3.0,12.0,82,0.00,RA,RA,0.87,963.0,WeatherDisplay:10.37,2013-07-01 16:14:00,
2013-07-01 12:24:00,71.9,65.4,29.99,North,360,7.0,12.0,80,0.00,RA,RA,0.87,1034.0,WeatherDisplay:10.37,2013-07-01 16:24:00,
2013-07-01 12:29:00,72.4,66.5,29.98,North,360,2.0,5.0,82,0.00,RA,RA,0.87,1056.0,WeatherDisplay:10.37,2013-07-01 16:29:00,
2013-07-01 12:34:00,72.2,65.3,29.98,North,360,6.0,13.0,79,0.00,RA,RA,0.87,1088.0,WeatherDisplay:10.37,2013-07-01 16:34:00,
2013-07-01 12:44:00,72.7,67.5,29.98,North,360,2.0,10.0,84,0.00,RA,RA,0.87,1011.0,WeatherDisplay:10.37,2013-07-01 16:44:00,
2013-07-01 12:54:00,73.2,66.3,29.98,North,360,3.0,13.0,79,0.00,RA,RA,0.87,1016.0,WeatherDisplay:10.37,2013-07-01 16:54:00,
2013-07-01 12:59:00,73.1,66.9,29.98,North,360,8.0,18.0,81,0.00,RA,RA,0.87,1060.0,WeatherDisplay:10.37,2013-07-01 16:59:00,
2013-07-01 13:04:00,73.3,67.1,29.98,North,360,3.0,15.0,81,0.00,RA,RA,0.87,1030.0,WeatherDisplay:10.37,2013-07-01 17:04:00,
2013-07-01 13:09:00,73.7,67.5,29.98,North,360,6.0,12.0,81,0.00,RA,RA,0.87,998.0,WeatherDisplay:10.37,2013-07-01 17:09:00,
2013-07-01 13:14:00,73.8,66.9,29.98,North,360,6.0,15.0,79,0.00,RA,RA,0.87,1014.0,WeatherDisplay:10.37,2013-07-01 17:14:00,
2013-07-01 13:19:00,73.9,66.6,29.98,North,360,7.0,17.0,78,0.00,RA,RA,0.87,1055.0,WeatherDisplay:10.37,2013-07-01 17:19:00,
2013-07-01 13:24:00,73.8,66.1,29.98,North,360,7.0,12.0,77,0.00,RA,RA,0.87,1055.0,WeatherDisplay:10.37,2013-07-01 17:24:00,
2013-07-01 13:29:00,73.6,65.6,29.97,North,360,7.0,14.0,76,0.00,RA,RA,0.87,1120.0,WeatherDisplay:10.37,2013-07-01 17:29:00,
2013-07-01 13:39:00,73.8,66.9,29.97,North,360,6.0,16.0,79,0.00,RA,RA,0.87,998.0,WeatherDisplay:10.37,2013-07-01 17:39:00,
2013-07-01 13:44:00,73.8,65.4,29.97,North,360,8.0,16.0,75,0.00,RA,RA,0.87,1069.0,WeatherDisplay:10.37,2013-07-01 17:44:00,
2013-07-01 13:49:00,73.7,64.9,29.97,North,360,8.0,16.0,74,0.00,RA,RA,0.87,1021.0,WeatherDisplay:10.37,2013-07-01 17:49:00,
2013-07-01 13:54:00,73.6,64.8,29.97,North,360,9.0,14.0,74,0.00,RA,RA,0.87,1051.0,WeatherDisplay:10.37,2013-07-01 17:54:00,
2013-07-01 13:59:00,73.9,66.6,29.96,North,360,5.0,12.0,78,0.00,RA,RA,0.87,1053.0,WeatherDisplay:10.37,2013-07-01 17:59:00,
2013-07-01 14:09:00,74.7,67.0,29.97,North,360,9.0,15.0,77,0.00,RA,RA,0.87,1055.0,WeatherDisplay:10.37,2013-07-01 18:09:00,
2013-07-01 14:19:00,74.9,67.2,29.97,North,360,8.0,18.0,77,0.00,RA,RA,0.87,1067.0,WeatherDisplay:10.37,2013-07-01 18:19:00,
2013-07-01 14:29:00,74.1,65.3,29.97,North,360,7.0,16.0,74,0.00,RA,RA,0.87,388.0,WeatherDisplay:10.37,2013-07-01 18:29:00,
2013-07-01 14:39:00,73.8,67.6,29.97,North,360,7.0,15.0,81,0.00,RA,RA,0.87,1136.0,WeatherDisplay:10.37,2013-07-01 18:39:00,
2013-07-01 14:44:00,74.4,68.5,29.97,North,360,6.0,16.0,82,0.00,RA,RA,0.87,1013.0,WeatherDisplay:10.37,2013-07-01 18:44:00,
2013-07-01 14:49:00,74.7,67.0,29.97,North,360,6.0,16.0,77,0.00,RA,RA,0.87,976.0,WeatherDisplay:10.37,2013-07-01 18:49:00,
2013-07-01 14:59:00,74.9,67.2,29.97,North,360,6.0,12.0,77,0.00,RA,RA,0.87,914.0,WeatherDisplay:10.37,2013-07-01 18:59:00,
2013-07-01 15:04:00,74.6,66.9,29.97,North,360,7.0,13.0,77,0.00,RA,RA,0.87,895.0,WeatherDisplay:10.37,2013-07-01 19:04:00,
2013-07-01 15:14:00,74.8,66.3,29.97,North,360,6.0,13.0,75,0.00,RA,RA,0.87,879.0,WeatherDisplay:10.37,2013-07-01 19:14:00,
2013-07-01 15:19:00,75.0,66.9,29.97,North,360,7.0,15.0,76,0.00,RA,RA,0.87,329.0,WeatherDisplay:10.37,2013-07-01 19:19:00,
2013-07-01 15:29:00,74.2,65.8,29.97,North,360,1.0,12.0,75,0.00,RA,RA,0.87,1027.0,WeatherDisplay:10.37,2013-07-01 19:29:00,
2013-07-01 15:34:00,74.5,66.4,29.98,North,360,5.0,12.0,76,0.00,RA,RA,0.87,956.0,WeatherDisplay:10.37,2013-07-01 19:34:00,
2013-07-01 15:39:00,74.8,66.3,29.98,North,360,7.0,13.0,75,0.00,RA,RA,0.87,865.0,WeatherDisplay:10.37,2013-07-01 19:39:00,
2013-07-01 15:49:00,74.6,65.3,29.98,North,360,7.0,17.0,73,0.00,RA,RA,0.87,399.0,WeatherDisplay:10.37,2013-07-01 19:49:00,
2013-07-01 15:54:00,73.7,64.5,29.98,North,360,7.0,12.0,73,0.00,RA,RA,0.87,399.0,WeatherDisplay:10.37,2013-07-01 19:54:00,
2013-07-01 15:59:00,73.2,65.9,29.97,North,360,2.0,10.0,78,0.00,RA,RA,0.87,350.0,WeatherDisplay:10.37,2013-07-01 19:59:00,
2013-07-01 16:04:00,73.0,65.0,29.97,North,360,3.0,13.0,76,0.00,RA,RA,0.87,399.0,WeatherDisplay:10.37,2013-07-01 20:04:00,
2013-07-01 16:09:00,72.7,65.1,29.98,North,360,9.0,14.0,77,0.00,RA,RA,0.87,429.0,WeatherDisplay:10.37,2013-07-01 20:09:00,
2013-07-01 16:19:00,73.0,66.1,29.97,North,360,7.0,13.0,79,0.00,RA,RA,0.87,371.0,WeatherDisplay:10.37,2013-07-01 20:19:00,
2013-07-01 16:24:00,72.9,67.1,29.97,North,360,2.0,12.0,82,0.00,RA,RA,0.87,919.0,WeatherDisplay:10.37,2013-07-01 20:24:00,
2013-07-01 16:29:00,73.3,66.1,29.96,North,360,7.0,13.0,78,0.00,RA,RA,0.87,381.0,WeatherDisplay:10.37,2013-07-01 20:29:00,
2013-07-01 16:39:00,73.5,65.8,29.97,North,360,7.0,18.0,77,0.00,RA,RA,0.87,629.0,WeatherDisplay:10.37,2013-07-01 20:39:00,
2013-07-01 16:49:00,74.2,65.8,29.97,North,360,1.0,12.0,75,0.00,RA,RA,0.87,302.0,WeatherDisplay:10.37,2013-07-01 20:49:00,
2013-07-01 16:59:00,73.7,66.5,29.97,North,360,7.0,13.0,78,0.00,RA,RA,0.87,264.0,WeatherDisplay:10.37,2013-07-01 20:59:00,
2013-07-01 17:04:00,73.1,65.1,29.97,North,360,8.0,14.0,76,0.00,RA,RA,0.87,253.0,WeatherDisplay:10.37,2013-07-01 21:04:00,
2013-07-01 17:09:00,72.6,64.6,29.96,North,360,7.0,12.0,76,0.00,RA,RA,0.87,251.0,WeatherDisplay:10.37,2013-07-01 21:09:00,
2013-07-01 17:19:00,72.1,65.9,29.97,North,360,3.0,12.0,81,0.00,RA,RA,0.87,128.0,WeatherDisplay:10.37,2013-07-01 21:19:00,
2013-07-01 17:24:00,71.8,65.3,29.97,North,360,5.0,9.0,80,0.00,RA,RA,0.87,100.0,WeatherDisplay:10.37,2013-07-01 21:24:00,
2013-07-01 17:29:00,71.3,65.5,29.97,North,360,0.0,7.0,82,0.00,RA,RA,0.87,28.0,WeatherDisplay:10.37,2013-07-01 21:29:00,
2013-07-01 17:34:00,71.0,65.3,29.96,North,360,2.0,12.0,82,0.00,RA,RA,0.87,23.0,WeatherDisplay:10.37,2013-07-01 21:34:00,
2013-07-01 17:39:00,70.5,65.1,29.96,North,360,6.0,12.0,83,0.00,RA,RA,0.87,51.0,WeatherDisplay:10.37,2013-07-01 21:39:00,
2013-07-01 17:44:00,70.1,65.4,29.96,North,360,6.0,10.0,85,0.00,RA,RA,0.87,16.0,WeatherDisplay:10.37,2013-07-01 21:44:00,
2013-07-01 17:49:00,69.8,65.4,29.96,North,360,0.0,7.0,86,0.00,RA,RA,0.87,9.0,WeatherDisplay:10.37,2013-07-01 21:49:00,
2013-07-01 17:59:00,69.5,65.5,29.96,North,360,0.0,4.0,87,0.00,RA,RA,0.87,39.0,WeatherDisplay:10.37,2013-07-01 21:59:00,
2013-07-01 18:04:00,69.3,65.3,29.96,North,360,0.0,8.0,87,0.00,RA,RA,0.87,42.0,WeatherDisplay:10.37,2013-07-01 22:04:00,
2013-07-01 18:09:00,69.1,65.1,29.97,North,360,0.0,1.0,87,0.00,RA,RA,0.87,21.0,WeatherDisplay:10.37,2013-07-01 22:09:00,
2013-07-01 18:14:00,69.0,65.0,29.96,North,360,0.0,4.0,87,0.00,RA,RA,0.87,14.0,WeatherDisplay:10.37,2013-07-01 22:14:00,
2013-07-01 18:19:00,69.0,65.0,29.97,North,360,1.0,7.0,87,0.00,RA,RA,0.87,0.0,WeatherDisplay:10.37,2013-07-01 22:19:00,
2013-07-01 18:29:00,68.5,64.8,29.98,North,360,1.0,9.0,88,0.01,RA,RA,0.89,0.0,WeatherDisplay:10.37,2013-07-01 22:29:00,
2013-07-01 18:34:00,68.1,65.1,29.98,North,360,0.0,6.0,90,0.00,RA,RA,0.89,0.0,WeatherDisplay:10.37,2013-07-01 22:34:00,
2013-07-01 18:39:00,67.8,65.1,30.00,North,360,2.0,6.0,91,0.05,RA,RA,0.94,0.0,WeatherDisplay:10.37,2013-07-01 22:39:00,
2013-07-01 18:49:00,66.0,63.0,30.01,North,360,10.0,20.0,90,0.01,RA,RA,0.96,0.0,WeatherDisplay:10.37,2013-07-01 22:49:00,
2013-07-01 18:54:00,64.4,61.4,30.01,North,360,17.0,23.0,90,0.01,RA,RA,0.97,0.0,WeatherDisplay:10.37,2013-07-01 22:54:00,
2013-07-01 18:59:00,63.6,61.5,30.01,North,360,10.0,21.0,93,0.34,RA,RA,1.31,0.0,WeatherDisplay:10.37,2013-07-01 22:59:00,
2013-07-01 19:04:00,63.2,61.1,30.02,North,360,6.0,10.0,93,0.14,RA,RA,1.45,5.0,WeatherDisplay:10.37,2013-07-01 23:04:00,
2013-07-01 19:09:00,62.9,61.2,30.02,North,360,2.0,9.0,94,0.13,RA,RA,1.58,12.0,WeatherDisplay:10.37,2013-07-01 23:09:00,
2013-07-01 19:14:00,62.8,61.0,30.02,North,360,0.0,5.0,94,0.03,RA,RA,1.61,19.0,WeatherDisplay:10.37,2013-07-01 23:14:00,
2013-07-01 19:19:00,62.8,61.3,30.03,North,360,3.0,6.0,95,0.04,RA,RA,1.65,30.0,WeatherDisplay:10.37,2013-07-01 23:19:00,
2013-07-01 19:24:00,62.7,61.2,30.03,North,360,0.0,3.0,95,0.03,RA,RA,1.68,21.0,WeatherDisplay:10.37,2013-07-01 23:24:00,
2013-07-01 19:29:00,62.6,60.8,30.03,North,360,2.0,6.0,94,0.03,RA,RA,1.71,21.0,WeatherDisplay:10.37,2013-07-01 23:29:00,
2013-07-01 19:39:00,62.4,60.9,30.03,North,360,0.0,3.0,95,0.01,RA,RA,1.76,26.0,WeatherDisplay:10.37,2013-07-01 23:39:00,
2013-07-01 19:49:00,62.5,61.1,30.03,North,360,2.0,5.0,95,0.00,RA,RA,1.77,35.0,WeatherDisplay:10.37,2013-07-01 23:49:00,
2013-07-01 19:54:00,62.5,61.0,30.03,North,360,0.0,3.0,95,0.01,RA,RA,1.78,28.0,WeatherDisplay:10.37,2013-07-01 23:54:00,
2013-07-01 19:59:00,62.5,61.0,30.04,North,360,0.0,0.0,95,0.00,RA,RA,1.78,28.0,WeatherDisplay:10.37,2013-07-01 23:59:00,
2013-07-01 20:09:00,62.6,61.4,30.04,North,360,0.0,2.0,96,0.00,RA,RA,1.79,35.0,WeatherDisplay:10.37,2013-07-02 00:09:00,
2013-07-01 20:14:00,62.6,61.4,30.03,North,360,0.0,0.0,96,0.00,RA,RA,1.79,44.0,WeatherDisplay:10.37,2013-07-02 00:14:00,
2013-07-01 20:19:00,62.6,61.4,30.03,North,360,0.0,0.0,96,0.00,RA,RA,1.79,28.0,WeatherDisplay:10.37,2013-07-02 00:19:00,
2013-07-01 20:24:00,62.6,61.4,30.03,North,360,0.0,0.0,96,0.00,RA,RA,1.79,21.0,WeatherDisplay:10.37,2013-07-02 00:24:00,
2013-07-01 20:29:00,62.6,61.5,30.03,North,360,0.0,0.0,96,0.00,RA,RA,1.79,18.0,WeatherDisplay:10.37,2013-07-02 00:29:00,
2013-07-01 20:34:00,62.6,61.5,30.03,North,360,0.0,0.0,96,0.00,RA,RA,1.79,12.0,WeatherDisplay:10.37,2013-07-02 00:34:00,
2013-07-01 20:44:00,62.6,61.4,30.03,North,360,0.0,0.0,96,0.00,RA,RA,1.79,0.0,WeatherDisplay:10.37,2013-07-02 00:44:00,
2013-07-01 20:54:00,62.7,61.5,30.03,North,360,0.0,0.0,96,0.00,RA,RA,1.79,0.0,WeatherDisplay:10.37,2013-07-02 00:54:00,
2013-07-01 20:59:00,62.7,61.5,30.03,North,360,0.0,1.0,96,0.00,RA,RA,1.79,0.0,WeatherDisplay:10.37,2013-07-02 00:59:00,
2013-07-01 21:04:00,62.7,61.6,30.04,North,360,0.0,1.0,96,0.00,RA,RA,1.79,0.0,WeatherDisplay:10.37,2013-07-02 01:04:00,
2013-07-01 21:09:00,62.7,61.5,30.04,North,360,0.0,0.0,96,0.00,RA,RA,1.79,0.0,WeatherDisplay:10.37,2013-07-02 01:09:00,
2013-07-01 21:19:00,62.7,61.5,30.04,North,360,0.0,1.0,96,0.00,RA,RA,1.79,0.0,WeatherDisplay:10.37,2013-07-02 01:19:00,
2013-07-01 21:24:00,62.6,61.5,30.04,North,360,0.0,1.0,96,0.00,RA,RA,1.79,0.0,WeatherDisplay:10.37,2013-07-02 01:24:00,
2013-07-01 21:34:00,62.6,61.4,30.04,North,360,0.0,0.0,96,0.00,RA,RA,1.79,0.0,WeatherDisplay:10.37,2013-07-02 01:34:00,
2013-07-01 21:39:00,62.6,61.4,30.05,North,360,0.0,0.0,96,0.00,RA,RA,1.79,0.0,WeatherDisplay:10.37,2013-07-02 01:39:00,
2013-07-01 21:44:00,62.6,61.4,30.05,North,360,0.0,0.0,96,0.00,RA,RA,1.79,0.0,WeatherDisplay:10.37,2013-07-02 01:44:00,
2013-07-01 21:54:00,62.6,61.5,30.05,North,360,0.0,0.0,96,0.00,RA,RA,1.79,0.0,WeatherDisplay:10.37,2013-07-02 01:54:00,
2013-07-01 21:59:00,62.6,61.4,30.05,North,360,0.0,0.0,96,0.00,RA,RA,1.79,0.0,WeatherDisplay:10.37,2013-07-02 01:59:00,
2013-07-01 22:09:00,62.5,61.3,30.05,North,360,1.0,3.0,96,0.00,RA,RA,1.79,0.0,WeatherDisplay:10.37,2013-07-02 02:09:00,
2013-07-01 22:14:00,62.4,61.2,30.05,North,360,0.0,1.0,96,0.00,RA,RA,1.79,0.0,WeatherDisplay:10.37,2013-07-02 02:14:00,
2013-07-01 22:24:00,62.2,61.0,30.05,North,360,0.0,2.0,96,0.00,RA,RA,1.79,0.0,WeatherDisplay:10.37,2013-07-02 02:24:00,
2013-07-01 22:29:00,62.1,61.0,30.05,North,360,2.0,3.0,96,0.00,RA,RA,1.79,0.0,WeatherDisplay:10.37,2013-07-02 02:29:00,
2013-07-01 22:34:00,62.0,60.8,30.05,North,360,1.0,3.0,96,0.00,RA,RA,1.79,0.0,WeatherDisplay:10.37,2013-07-02 02:34:00,
2013-07-01 22:39:00,62.0,60.8,30.05,North,360,1.0,5.0,96,0.00,RA,RA,1.79,0.0,WeatherDisplay:10.37,2013-07-02 02:39:00,
2013-07-01 22:49:00,61.9,60.7,30.05,North,360,0.0,0.0,96,0.00,RA,RA,1.79,0.0,WeatherDisplay:10.37,2013-07-02 02:49:00,
2013-07-01 22:54:00,61.8,60.6,30.05,North,360,0.0,0.0,96,0.00,RA,RA,1.79,0.0,WeatherDisplay:10.37,2013-07-02 02:54:00,
2013-07-01 22:59:00,61.8,60.6,30.06,North,360,0.0,0.0,96,0.00,RA,RA,1.79,0.0,WeatherDisplay:10.37,2013-07-02 02:59:00,
2013-07-01 23:09:00,61.7,60.6,30.06,North,360,0.0,0.0,96,0.00,RA,RA,1.79,0.0,WeatherDisplay:10.37,2013-07-02 03:09:00,
2013-07-01 23:19:00,61.8,60.6,30.07,North,360,0.0,0.0,96,0.00,RA,RA,1.79,0.0,WeatherDisplay:10.37,2013-07-02 03:19:00,
2013-07-01 23:24:00,61.7,60.5,30.06,North,360,0.0,0.0,96,0.00,RA,RA,1.79,0.0,WeatherDisplay:10.37,2013-07-02 03:24:00,
2013-07-01 23:29:00,61.7,60.5,30.06,North,360,0.0,0.0,96,0.00,RA,RA,1.79,0.0,WeatherDisplay:10.37,2013-07-02 03:29:00,
2013-07-01 23:39:00,61.6,60.4,30.06,North,360,0.0,0.0,96,0.00,RA,RA,1.79,0.0,WeatherDisplay:10.37,2013-07-02 03:39:00,
2013-07-01 23:44:00,61.4,60.2,30.06,North,360,0.0,1.0,96,0.00,RA,RA,1.79,0.0,WeatherDisplay:10.37,2013-07-02 03:44:00,
2013-07-01 23:49:00,61.3,60.2,30.06,North,360,0.0,0.0,96,0.00,RA,RA,1.79,0.0,WeatherDisplay:10.37,2013-07-02 03:49:00,
2013-07-01 23:54:00,61.2,60.1,30.06,North,360,0.0,0.0,96,0.00,RA,RA,1.79,0.0,WeatherDisplay:10.37,2013-07-02 03:54:00,
2013-07-01 23:59:00,61.1,60.0,30.06,North,360,0.0,0.0,96,0.00,CLR,CLR,0.00,0.0,WeatherDisplay:10.37,2013-07-02 03:59:00,